Location: Melbourne
(37.8666°S, 145.1333°E)
Time: 05:21:50
(UTC+10:00)

Daily predictions for brighter satellites

Satellite Brightness Start Highest point End
(mag) Time Altitude Azimuth Time Altitude Azimuth Time Altitude Azimuth
Cosmos 2360 Rocket 4.0 03:03:34 25° S 03:03:34 25° S 03:05:55 10° SSE
COSMOS 2428 3.8 03:09:26 41° SSE 03:09:26 41° SSE 03:13:08 10° SSE
Okean O Rocket 4.4 03:11:35 12° S 03:11:35 12° S 03:12:01 10° S
CZ-4B R/B 4.1 03:11:27 46° ESE 03:11:27 46° ESE 03:16:36 10° S
Cosmos 2333 Rocket 3.2 03:15:21 42° E 03:15:21 42° E 03:20:35 10° SE
ATLAS 2AS CENTAUR R/B 4.4 03:19:50 16° SSW 03:19:50 16° SSW 03:22:15 10° S
Meteor 2-20 Rocket 4.5 03:30:30 75° SSE 03:30:30 75° SSE 03:36:11 10° S
NOSS 3-4 (A) 4.1 03:30:44 60° SW 03:30:44 60° SW 03:38:19 10° SSE
NOSS 3-4 (C) 4.1 03:30:50 60° SW 03:30:50 60° SW 03:38:26 10° SSE
CENTAUR R/B 3.6 03:27:51 10° SSW 03:33:25 36° SE 03:38:34 10° ENE
NOSS 0 Rocket 4.3 03:41:36 48° NNE 03:43:00 61° ENE 03:49:06 10° SSE
ASTEX 1 3.9 03:51:07 50° SSW 03:51:07 50° SSW 03:54:53 10° S
Cosmos 2237 Rocket 2.5 03:56:00 42° N 03:57:48 65° ENE 04:03:29 10° SSE
Cosmos 1092 Rocket 4.0 03:58:54 58° WSW 03:58:54 58° WSW 04:04:54 10° S
Meteor 1-19 Rocket 4.5 03:53:40 10° S 03:59:34 73° E 04:05:27 10° NNE
Haruka 4.0 04:01:56 43° NNW 04:02:42 45° N 04:06:31 10° ENE
Cosmos 1300 Rocket 4.5 04:01:14 27° NNE 04:03:19 48° E 04:07:34 10° SSE
SL-16 R/B 2.6 03:58:09 10° S 04:04:18 56° WSW 04:04:54 54° W
Cosmos 1844 3.5 04:00:06 10° SSW 04:05:43 73° WNW 04:11:15 10° NNE
Meteor 2-4 Rocket 4.3 04:00:26 10° S 04:05:46 55° ESE 04:11:02 10° NNE
Okean-O 3.8 04:02:02 10° NE 04:06:15 43° ESE 04:10:31 10° S
Cosmos 1302 Rocket 4.4 04:06:55 47° SW 04:06:55 47° SW 04:11:29 10° S
Cosmos 2219 Rocket 2.3 04:08:01 55° WSW 04:08:09 55° WSW 04:13:46 10° SSE
Cosmos 2026 Rocket 3.8 04:06:45 36° NNW 04:09:28 81° W 04:15:46 10° S
Cosmos 1980 3.6 04:11:24 47° NNW 04:13:09 86° WSW 04:18:53 10° SSE
Cosmos 1354 Rocket 4.3 04:12:05 10° SSW 04:17:24 69° ESE 04:22:39 10° NNE
Cosmos 1503 Rocket 4.2 04:13:24 10° SSW 04:18:40 71° ESE 04:23:55 10° NNE
Cosmos 1553 Rocket 4.4 04:12:18 10° S 04:18:45 67° E 04:25:02 10° NNE
Cosmos 1536 2.9 04:17:54 48° N 04:18:57 79° E 04:23:07 10° S
NOAA 6 4.5 04:15:39 10° NNE 04:20:46 64° ESE 04:25:57 10° S
Shenzhou-11 Module 3.1 04:22:57 41° SSE 04:22:57 41° SSE 04:25:44 10° E
USA 267 3.3 04:19:10 10° SE 04:25:41 65° SW 04:28:39 34° WNW
Meteor 1-11 Rocket 3.8 04:22:57 25° NNW 04:26:35 70° W 04:32:38 10° S
RESURS DK-1 4.1 04:29:41 19° SSW 04:29:41 19° SSW 04:31:48 10° S
S3M 4.0 04:30:46 10° S 04:36:58 84° E 04:43:09 10° N
Cosmos 2278 Rocket 2.1 04:43:24 10° SSW 04:49:02 65° WNW 04:54:38 10° N
Meteor 1-23 Rocket 4.2 04:45:59 10° S 04:51:45 81° W 04:57:22 10° N
COSMOS 2428 4.3 04:51:27 16° WSW 04:52:17 16° SW 04:55:48 10° SSW
H-2A R/B 2.6 04:52:38 10° NNE 04:53:01 10° NNE 04:53:26 10° NE
COSMOS 2455 2.9 04:48:25 10° SSW 04:54:31 88° ESE 05:00:32 10° NNE
USA 234 4.2 04:52:37 10° ENE 04:58:49 47° SE 05:05:05 10° SW
Cosmos 2333 Rocket 3.3 04:57:23 22° W 04:59:32 27° WSW 05:04:25 10° S
OAO 2 Rocket 3.4 04:59:02 23° W 05:02:00 61° N 05:06:53 10° ENE
Okean 1 Rocket 3.2 04:59:23 10° NNW 05:03:39 51° W 05:07:58 10° S
Tiangong 2 1.9 05:01:49 19° SW 05:03:52 48° SSE 05:07:03 10° E
Lacrosse 5 4.1 05:02:57 10° SSW 05:07:03 23° SSE 05:11:07 10° E
PAYLOAD A 3.8 05:02:41 10° N 05:07:24 82° WNW 05:12:18 10° SSW
Okean 2 3.3 05:06:40 10° S 05:10:52 82° W 05:14:59 10° N
SL-24 R/B - RUBIN 2 3.7 05:07:31 15° NW 05:11:06 57° SW 05:15:52 10° SSE
Cosmos 2297 3.8 05:07:28 10° SSW 05:13:12 84° ESE 05:18:50 10° NNE
IRAS Rocket 4.2 05:07:39 10° N 05:13:12 73° WNW 05:18:47 10° SSW
GPS 2-04 Rocket1 2.6 05:17:18 17° W 05:19:49 56° N 05:23:12 10° ENE
CENTAUR R/B 2.9 05:18:43 10° SW 05:23:49 32° WNW 05:28:41 10° N
Cosmos 1437 Rocket 3.1 05:20:15 10° N 05:24:22 79° E 05:28:34 10° SSE
Cosmos 405 3.8 05:22:42 10° NW 05:25:54 31° WSW 05:29:10 10° SSW
IDEFIX/ARIANE 42P 2.6 05:22:56 10° N 05:28:07 60° W 05:33:22 10° SSW
SL-16 R/B 2.4 05:24:51 10° NW 05:30:24 52° WSW 05:36:01 10° SSE
SJ-12 3.9 05:31:16 10° N 05:35:26 82° WNW 05:39:41 10° SSW
Cosmos 2266 Rocket 4.2 05:29:26 10° NNW 05:35:32 49° W 05:41:36 10° S
Cosmos 1238 Rocket 4.3 05:30:50 10° S 05:36:30 72° E 05:42:58 10° NNE
Okean 1-7 Rocket 4.0 05:33:15 10° SSW 05:37:27 41° W 05:41:37 10° NNW
Ariane Rocket 3.1 05:35:57 10° NNE 05:41:05 89° E 05:46:16 10° SSW
Meteor 1-12 Rocket 4.4 05:35:08 10° N 05:41:05 86° W 05:47:01 10° S
Cosmos 2237 Rocket 3.7 05:38:28 10° W 05:42:22 18° SW 05:46:17 10° S
Cosmos 1544 Rocket 3.6 05:38:22 10° N 05:42:49 83° W 05:47:21 10° S
Okean-O 4.2 05:40:12 10° NW 05:42:55 16° W 05:45:39 10° SW
